Location: Unspecified
(43.4000°N, 0.0000°E)
Time: 20:31:18
(UTC+00:00)

NOAA 19 - Pass Details

Date: 31 August 2019
Orbit: 841 x 861 km, 99.2° (Epoch: 23 October)

Event Time Altitude Azimuth Distance (km) Brightness Sun altitude
Rises 04:11:55 0° 31° (NNE) 3,417 9.4 -12.9°
Reaches altitude 10° 04:15:10 10° 50° (NE) 2,472 9.0 -12.4°
Maximum altitude 04:18:42 17° 91° (E) 1,994 8.1 -11.8°
Drops below altitude 10° 04:22:13 10° 132° (SE) 2,455 8.0 -11.2°
Sets 04:25:24 0° 151° (SSE) 3,383 8.4 -10.7°
